Time,TemperatureF,DewpointF,PressureIn,WindDirection,WindDirectionDegrees,WindSpeedMPH,WindSpeedGustMPH,Humidity,HourlyPrecipIn,Conditions,Clouds,dailyrainin,SoftwareType,DateUTC
2013-07-14 00:04:00,70.8,62.9,29.57,East,90,0.0,0.0,76,0.00,,,0.00,Wunderground v.1.15,2013-07-14 05:04:00,
2013-07-14 00:10:00,70.8,62.9,29.58,East,90,0.0,0.0,76,0.00,,,0.00,Wunderground v.1.15,2013-07-14 05:10:00,
2013-07-14 00:15:00,70.7,62.8,29.57,East,90,0.0,0.0,76,0.00,,,0.00,Wunderground v.1.15,2013-07-14 05:15:00,
2013-07-14 00:20:00,71.0,63.4,29.57,East,90,0.0,0.0,77,0.00,,,0.00,Wunderground v.1.15,2013-07-14 05:20:00,
2013-07-14 00:26:00,70.5,62.9,29.58,East,90,0.0,0.0,77,0.00,,,0.00,Wunderground v.1.15,2013-07-14 05:26:00,
2013-07-14 00:31:00,70.5,62.9,29.58,East,90,0.0,0.0,77,0.00,,,0.00,Wunderground v.1.15,2013-07-14 05:31:00,
2013-07-14 00:36:00,70.3,63.1,29.58,East,90,0.0,0.0,78,0.00,,,0.00,Wunderground v.1.15,2013-07-14 05:36:00,
2013-07-14 00:42:00,70.1,62.9,29.58,East,90,0.0,0.0,78,0.00,,,0.00,Wunderground v.1.15,2013-07-14 05:42:00,
2013-07-14 00:47:00,69.9,63.1,29.58,East,90,0.0,4.0,79,0.00,,,0.00,Wunderground v.1.15,2013-07-14 05:47:00,
2013-07-14 00:53:00,69.6,63.2,29.58,East,90,0.0,0.0,80,0.00,,,0.00,Wunderground v.1.15,2013-07-14 05:53:00,
2013-07-14 00:58:00,69.4,63.0,29.58,East,90,0.0,0.0,80,0.00,,,0.00,Wunderground v.1.15,2013-07-14 05:58:00,
2013-07-14 01:03:00,69.2,62.8,29.58,East,90,0.0,0.0,80,0.00,,,0.00,Wunderground v.1.15,2013-07-14 06:03:00,
2013-07-14 01:09:00,69.0,62.9,29.57,East,90,0.0,0.0,81,0.00,,,0.00,Wunderground v.1.15,2013-07-14 06:09:00,
2013-07-14 01:14:00,68.7,62.6,29.57,East,90,0.0,0.0,81,0.00,,,0.00,Wunderground v.1.15,2013-07-14 06:14:00,
2013-07-14 01:20:00,68.5,62.8,29.57,East,90,0.0,0.0,82,0.00,,,0.00,Wunderground v.1.15,2013-07-14 06:20:00,
2013-07-14 01:25:00,68.4,62.7,29.57,East,90,0.0,0.0,82,0.00,,,0.00,Wunderground v.1.15,2013-07-14 06:25:00,
2013-07-14 01:30:00,69.4,63.3,29.57,East,90,0.0,0.0,81,0.00,,,0.00,Wunderground v.1.15,2013-07-14 06:30:00,
2013-07-14 01:36:00,68.2,62.1,29.57,East,90,0.0,0.0,81,0.00,,,0.00,Wunderground v.1.15,2013-07-14 06:36:00,
2013-07-14 01:41:00,67.9,62.5,29.57,East,91,0.0,0.0,83,0.00,,,0.00,Wunderground v.1.15,2013-07-14 06:41:00,
2013-07-14 01:46:00,67.7,62.7,29.57,East,90,0.0,1.0,84,0.00,,,0.00,Wunderground v.1.15,2013-07-14 06:46:00,
2013-07-14 01:52:00,67.9,-99.9,29.57,East,90,0.0,2.0,255,0.00,,,0.00,Wunderground v.1.15,2013-07-14 06:52:00,
2013-07-14 01:57:00,67.7,62.7,29.57,East,90,1.0,2.0,84,0.00,,,0.00,Wunderground v.1.15,2013-07-14 06:57:00,
2013-07-14 02:02:00,67.9,62.5,29.57,East,90,0.0,1.0,83,0.00,,,0.00,Wunderground v.1.15,2013-07-14 07:02:00,
2013-07-14 02:07:00,67.9,62.9,29.57,East,90,0.0,5.0,84,0.00,,,0.00,Wunderground v.1.15,2013-07-14 07:07:00,
2013-07-14 02:12:00,67.8,62.8,29.58,East,90,0.0,1.0,84,0.00,,,0.00,Wunderground v.1.15,2013-07-14 07:12:00,
2013-07-14 02:17:00,67.9,62.9,29.58,East,90,0.0,1.0,84,0.00,,,0.00,Wunderground v.1.15,2013-07-14 07:17:00,
2013-07-14 02:22:00,68.0,62.6,29.58,East,90,0.0,1.0,83,0.00,,,0.00,Wunderground v.1.15,2013-07-14 07:22:00,
2013-07-14 02:27:00,67.7,62.7,29.58,East,90,0.0,2.0,84,0.00,,,0.00,Wunderground v.1.15,2013-07-14 07:27:00,
2013-07-14 02:32:00,67.7,63.0,29.58,East,90,0.0,0.0,85,0.00,,,0.00,Wunderground v.1.15,2013-07-14 07:32:00,
2013-07-14 02:37:00,67.6,62.9,29.58,East,90,0.0,2.0,85,0.00,,,0.00,Wunderground v.1.15,2013-07-14 07:37:00,
2013-07-14 02:43:00,67.4,62.7,29.58,East,90,0.0,0.0,85,0.00,,,0.00,Wunderground v.1.15,2013-07-14 07:43:00,
2013-07-14 02:48:00,67.4,63.1,29.58,East,90,0.0,5.0,86,0.00,,,0.00,Wunderground v.1.15,2013-07-14 07:48:00,
2013-07-14 02:53:00,67.3,63.0,29.58,East,90,0.0,2.0,86,0.00,,,0.00,Wunderground v.1.15,2013-07-14 07:53:00,
2013-07-14 02:58:00,67.3,63.0,29.58,East,90,0.0,2.0,86,0.00,,,0.00,Wunderground v.1.15,2013-07-14 07:58:00,
2013-07-14 03:04:00,67.2,62.9,29.58,East,90,0.0,0.0,86,0.00,,,0.00,Wunderground v.1.15,2013-07-14 08:04:00,
2013-07-14 03:09:00,67.1,62.8,29.58,East,90,0.0,4.0,86,0.00,,,0.00,Wunderground v.1.15,2013-07-14 08:09:00,
2013-07-14 03:14:00,66.9,62.9,29.58,East,90,1.0,4.0,87,0.00,,,0.00,Wunderground v.1.15,2013-07-14 08:14:00,
2013-07-14 03:20:00,66.8,62.8,29.58,East,90,0.0,0.0,87,0.00,,,0.00,Wunderground v.1.15,2013-07-14 08:20:00,
2013-07-14 03:25:00,66.7,62.7,29.58,East,90,0.0,1.0,87,0.00,,,0.00,Wunderground v.1.15,2013-07-14 08:25:00,
2013-07-14 03:30:00,66.6,62.6,29.58,East,90,0.0,0.0,87,0.00,,,0.00,Wunderground v.1.15,2013-07-14 08:30:00,
2013-07-14 03:36:00,66.5,62.8,29.58,East,90,0.0,4.0,88,0.00,,,0.00,Wunderground v.1.15,2013-07-14 08:36:00,
2013-07-14 03:41:00,66.4,62.7,29.58,East,90,0.0,0.0,88,0.00,,,0.00,Wunderground v.1.15,2013-07-14 08:41:00,
2013-07-14 03:47:00,66.4,62.7,29.57,East,90,0.0,0.0,88,0.00,,,0.00,Wunderground v.1.15,2013-07-14 08:47:00,
2013-07-14 03:52:00,66.4,62.7,29.58,East,90,0.0,0.0,88,0.00,,,0.00,Wunderground v.1.15,2013-07-14 08:52:00,
2013-07-14 03:57:00,66.3,62.6,29.58,East,90,0.0,0.0,88,0.00,,,0.00,Wunderground v.1.15,2013-07-14 08:57:00,
2013-07-14 04:02:00,66.2,62.5,29.57,East,90,0.0,0.0,88,0.00,,,0.00,Wunderground v.1.15,2013-07-14 09:02:00,
2013-07-14 04:07:00,66.1,62.4,29.57,East,90,0.0,0.0,88,0.00,,,0.00,Wunderground v.1.15,2013-07-14 09:07:00,
2013-07-14 04:12:00,66.0,62.3,29.58,East,90,0.0,0.0,88,0.00,,,0.00,Wunderground v.1.15,2013-07-14 09:12:00,
2013-07-14 04:17:00,65.8,62.1,29.58,East,90,0.0,0.0,88,0.00,,,0.00,Wunderground v.1.15,2013-07-14 09:17:00,
2013-07-14 04:22:00,65.7,62.0,29.57,East,90,0.0,0.0,88,0.00,,,0.00,Wunderground v.1.15,2013-07-14 09:22:00,
2013-07-14 04:27:00,65.7,62.4,29.58,East,90,0.0,0.0,89,0.00,,,0.00,Wunderground v.1.15,2013-07-14 09:27:00,
2013-07-14 04:33:00,65.6,62.3,29.58,East,90,0.0,0.0,89,0.00,,,0.00,Wunderground v.1.15,2013-07-14 09:33:00,
2013-07-14 04:38:00,65.6,62.3,29.58,East,90,0.0,2.0,89,0.00,,,0.00,Wunderground v.1.15,2013-07-14 09:38:00,
2013-07-14 04:43:00,65.6,62.3,29.58,East,90,0.0,0.0,89,0.00,,,0.00,Wunderground v.1.15,2013-07-14 09:43:00,
2013-07-14 04:49:00,65.6,62.6,29.58,East,90,0.0,0.0,90,0.00,,,0.00,Wunderground v.1.15,2013-07-14 09:49:00,
2013-07-14 04:54:00,65.6,62.6,29.58,East,90,0.0,2.0,90,0.00,,,0.00,Wunderground v.1.15,2013-07-14 09:54:00,
2013-07-14 04:59:00,65.6,62.6,29.58,East,90,0.0,2.0,90,0.00,,,0.00,Wunderground v.1.15,2013-07-14 09:59:00,
2013-07-14 05:04:00,65.6,62.6,29.57,East,90,2.0,2.0,90,0.00,,,0.00,Wunderground v.1.15,2013-07-14 10:04:00,
2013-07-14 05:10:00,65.5,62.5,29.58,East,90,0.0,0.0,90,0.00,,,0.00,Wunderground v.1.15,2013-07-14 10:10:00,
2013-07-14 05:15:00,65.5,62.5,29.58,East,90,0.0,4.0,90,0.00,,,0.00,Wunderground v.1.15,2013-07-14 10:15:00,
2013-07-14 05:20:00,65.6,62.6,29.57,East,90,2.0,2.0,90,0.00,,,0.00,Wunderground v.1.15,2013-07-14 10:20:00,
2013-07-14 05:26:00,65.6,62.6,29.58,East,90,0.0,4.0,90,0.00,,,0.00,Wunderground v.1.15,2013-07-14 10:26:00,
2013-07-14 05:31:00,65.6,62.6,29.58,East,90,2.0,4.0,90,0.00,,,0.00,Wunderground v.1.15,2013-07-14 10:31:00,
2013-07-14 05:36:00,65.9,62.6,29.58,East,90,0.0,4.0,89,0.00,,,0.00,Wunderground v.1.15,2013-07-14 10:36:00,
2013-07-14 05:41:00,65.7,62.7,29.58,East,90,0.0,0.0,90,0.00,,,0.00,Wunderground v.1.15,2013-07-14 10:41:00,
2013-07-14 05:47:00,65.7,62.7,29.58,East,90,0.0,0.0,90,0.00,,,0.00,Wunderground v.1.15,2013-07-14 10:47:00,
2013-07-14 05:52:00,65.7,62.7,29.58,East,90,0.0,0.0,90,0.00,,,0.00,Wunderground v.1.15,2013-07-14 10:52:00,
2013-07-14 05:57:00,65.8,62.5,29.58,East,90,0.0,0.0,89,0.00,,,0.00,Wunderground v.1.15,2013-07-14 10:57:00,
2013-07-14 06:03:00,65.7,62.4,29.58,East,90,0.0,2.0,89,0.00,,,0.00,Wunderground v.1.15,2013-07-14 11:03:00,
2013-07-14 06:08:00,65.7,62.4,29.58,East,90,0.0,2.0,89,0.00,,,0.00,Wunderground v.1.15,2013-07-14 11:08:00,
2013-07-14 06:13:00,65.7,62.7,29.58,East,90,5.0,5.0,90,0.00,,,0.00,Wunderground v.1.15,2013-07-14 11:13:00,
2013-07-14 06:19:00,65.7,62.7,29.58,East,90,0.0,5.0,90,0.00,,,0.00,Wunderground v.1.15,2013-07-14 11:19:00,
2013-07-14 06:24:00,65.8,62.8,29.58,East,91,0.0,7.0,90,0.00,,,0.00,Wunderground v.1.15,2013-07-14 11:24:00,
2013-07-14 06:29:00,65.8,62.8,29.58,East,91,8.0,8.0,90,0.00,,,0.00,Wunderground v.1.15,2013-07-14 11:29:00,
2013-07-14 06:34:00,65.9,62.9,29.58,East,90,0.0,5.0,90,0.00,,,0.00,Wunderground v.1.15,2013-07-14 11:34:00,
2013-07-14 06:39:00,66.0,63.0,29.58,East,90,0.0,5.0,90,0.00,,,0.00,Wunderground v.1.15,2013-07-14 11:39:00,
2013-07-14 06:44:00,66.3,63.0,29.58,East,90,0.0,1.0,89,0.00,,,0.00,Wunderground v.1.15,2013-07-14 11:44:00,
2013-07-14 06:49:00,66.5,63.2,29.59,East,90,0.0,7.0,89,0.00,,,0.00,Wunderground v.1.15,2013-07-14 11:49:00,
2013-07-14 06:55:00,66.7,63.4,29.59,East,90,4.0,4.0,89,0.00,,,0.00,Wunderground v.1.15,2013-07-14 11:55:00,
2013-07-14 07:00:00,66.9,63.6,29.59,East,91,0.0,1.0,89,0.00,,,0.00,Wunderground v.1.15,2013-07-14 12:00:00,
2013-07-14 07:05:00,67.2,63.5,29.60,East,91,0.0,8.0,88,0.00,,,0.00,Wunderground v.1.15,2013-07-14 12:05:00,
2013-07-14 07:11:00,67.5,63.5,29.59,East,90,0.0,6.0,87,0.00,,,0.00,Wunderground v.1.15,2013-07-14 12:11:00,
2013-07-14 07:16:00,67.8,63.8,29.59,East,90,0.0,6.0,87,0.00,,,0.00,Wunderground v.1.15,2013-07-14 12:16:00,
2013-07-14 07:21:00,68.2,63.9,29.59,East,90,0.0,1.0,86,0.00,,,0.00,Wunderground v.1.15,2013-07-14 12:21:00,
2013-07-14 07:27:00,68.5,63.8,29.59,East,91,0.0,6.0,85,0.00,,,0.00,Wunderground v.1.15,2013-07-14 12:27:00,
2013-07-14 07:32:00,69.1,64.1,29.59,East,90,0.0,2.0,84,0.00,,,0.00,Wunderground v.1.15,2013-07-14 12:32:00,
2013-07-14 07:37:00,69.8,64.4,29.59,East,91,0.0,5.0,83,0.00,,,0.00,Wunderground v.1.15,2013-07-14 12:37:00,
2013-07-14 07:43:00,70.1,64.3,29.60,East,91,0.0,2.0,82,0.00,,,0.00,Wunderground v.1.15,2013-07-14 12:43:00,
2013-07-14 07:48:00,70.4,64.6,29.60,East,91,0.0,7.0,82,0.00,,,0.00,Wunderground v.1.15,2013-07-14 12:48:00,
2013-07-14 07:53:00,70.4,64.3,29.60,East,91,0.0,8.0,81,0.00,,,0.00,Wunderground v.1.15,2013-07-14 12:53:00,
2013-07-14 07:59:00,70.3,64.2,29.61,East,90,6.0,8.0,81,0.00,,,0.00,Wunderground v.1.15,2013-07-14 12:59:00,
2013-07-14 08:04:00,70.3,64.2,29.61,East,95,11.0,11.0,81,0.00,,,0.00,Wunderground v.1.15,2013-07-14 13:04:00,
2013-07-14 08:09:00,70.3,64.2,29.61,East,95,0.0,11.0,81,0.00,,,0.00,Wunderground v.1.15,2013-07-14 13:09:00,
2013-07-14 08:15:00,70.4,64.3,29.62,East,95,0.0,6.0,81,0.00,,,0.00,Wunderground v.1.15,2013-07-14 13:15:00,
2013-07-14 08:20:00,70.6,64.8,29.62,East,95,0.0,0.0,82,0.00,,,0.00,Wunderground v.1.15,2013-07-14 13:20:00,
2013-07-14 08:25:00,70.9,64.8,29.62,East,95,0.0,6.0,81,0.00,,,0.00,Wunderground v.1.15,2013-07-14 13:25:00,
2013-07-14 08:30:00,71.2,65.1,29.62,East,95,0.0,0.0,81,0.00,,,0.00,Wunderground v.1.15,2013-07-14 13:30:00,
2013-07-14 08:35:00,71.4,64.9,29.62,East,95,0.0,5.0,80,0.00,,,0.00,Wunderground v.1.15,2013-07-14 13:35:00,
2013-07-14 08:40:00,71.7,64.5,29.62,East,95,0.0,5.0,78,0.00,,,0.00,Wunderground v.1.15,2013-07-14 13:40:00,
2013-07-14 08:46:00,72.4,-99.9,29.62,East,95,6.0,7.0,255,0.00,,,0.00,Wunderground v.1.15,2013-07-14 13:46:00,
2013-07-14 08:51:00,72.7,65.1,29.62,East,95,0.0,1.0,77,0.00,,,0.00,Wunderground v.1.15,2013-07-14 13:51:00,
2013-07-14 08:57:00,73.2,65.6,29.62,East,95,0.0,6.0,77,0.00,,,0.00,Wunderground v.1.15,2013-07-14 13:57:00,
2013-07-14 09:02:00,73.7,65.7,29.62,East,95,4.0,7.0,76,0.00,,,0.00,Wunderground v.1.15,2013-07-14 14:02:00,
2013-07-14 09:06:00,74.2,66.1,29.62,East,95,1.0,7.0,76,0.00,,,0.00,Wunderground v.1.15,2013-07-14 14:06:00,
2013-07-14 09:12:00,74.7,66.2,29.63,East,95,0.0,7.0,75,0.00,,,0.00,Wunderground v.1.15,2013-07-14 14:12:00,
2013-07-14 09:17:00,75.1,65.9,29.63,East,95,0.0,8.0,73,0.00,,,0.00,Wunderground v.1.15,2013-07-14 14:17:00,
2013-07-14 09:22:00,75.4,66.9,29.62,East,95,0.0,1.0,75,0.00,,,0.00,Wunderground v.1.15,2013-07-14 14:22:00,
2013-07-14 09:27:00,75.8,66.9,29.63,East,95,0.0,4.0,74,0.00,,,0.00,Wunderground v.1.15,2013-07-14 14:27:00,
2013-07-14 09:33:00,76.3,67.0,29.63,East,95,0.0,6.0,73,0.00,,,0.00,Wunderground v.1.15,2013-07-14 14:33:00,
2013-07-14 09:38:00,76.7,67.4,29.63,East,95,0.0,6.0,73,0.00,,,0.00,Wunderground v.1.15,2013-07-14 14:38:00,
2013-07-14 09:43:00,77.1,67.8,29.63,East,95,0.0,1.0,73,0.00,,,0.00,Wunderground v.1.15,2013-07-14 14:43:00,
2013-07-14 09:48:00,77.6,68.3,29.63,East,95,0.0,1.0,73,0.00,,,0.00,Wunderground v.1.15,2013-07-14 14:48:00,
2013-07-14 09:54:00,78.3,68.1,29.63,East,95,0.0,0.0,71,0.00,,,0.00,Wunderground v.1.15,2013-07-14 14:54:00,
2013-07-14 09:59:00,79.0,67.5,29.63,East,95,0.0,4.0,68,0.00,,,0.00,Wunderground v.1.15,2013-07-14 14:59:00,
2013-07-14 10:04:00,79.4,65.7,29.63,East,99,0.0,9.0,63,0.00,,,0.00,Wunderground v.1.15,2013-07-14 15:04:00,
2013-07-14 10:10:00,79.1,65.9,29.63,East,99,0.0,2.0,64,0.00,,,0.00,Wunderground v.1.15,2013-07-14 15:10:00,
2013-07-14 10:15:00,79.2,66.9,29.63,East,99,0.0,2.0,66,0.00,,,0.00,Wunderground v.1.15,2013-07-14 15:15:00,
2013-07-14 10:20:00,79.4,67.9,29.63,East,98,0.0,1.0,68,0.00,,,0.00,Wunderground v.1.15,2013-07-14 15:20:00,
2013-07-14 10:25:00,79.7,68.2,29.63,East,98,0.0,1.0,68,0.00,,,0.00,Wunderground v.1.15,2013-07-14 15:25:00,
2013-07-14 10:30:00,79.9,68.0,29.63,East,98,0.0,1.0,67,0.00,,,0.00,Wunderground v.1.15,2013-07-14 15:30:00,
2013-07-14 10:35:00,80.4,67.1,29.63,East,98,0.0,6.0,64,0.00,,,0.00,Wunderground v.1.15,2013-07-14 15:35:00,
2013-07-14 10:40:00,80.5,66.3,29.63,East,99,0.0,2.0,62,0.00,,,0.00,Wunderground v.1.15,2013-07-14 15:40:00,
2013-07-14 10:46:00,80.5,67.2,29.63,East,99,0.0,6.0,64,0.00,,,0.00,Wunderground v.1.15,2013-07-14 15:46:00,
2013-07-14 10:51:00,80.6,67.3,29.63,ESE,109,0.0,1.0,64,0.00,,,0.00,Wunderground v.1.15,2013-07-14 15:51:00,
2013-07-14 10:56:00,80.9,68.0,29.63,ESE,109,2.0,2.0,65,0.00,,,0.00,Wunderground v.1.15,2013-07-14 15:56:00,
2013-07-14 11:01:00,81.3,68.0,29.63,ESE,108,0.0,1.0,64,0.00,,,0.00,Wunderground v.1.15,2013-07-14 16:01:00,
2013-07-14 11:07:00,81.6,68.7,29.63,ESE,106,5.0,8.0,65,0.00,,,0.00,Wunderground v.1.15,2013-07-14 16:07:00,
2013-07-14 11:12:00,81.4,68.9,29.63,ESE,105,0.0,6.0,66,0.00,,,0.00,Wunderground v.1.15,2013-07-14 16:12:00,
2013-07-14 11:17:00,81.5,67.7,29.63,ESE,105,0.0,8.0,63,0.00,,,0.00,Wunderground v.1.15,2013-07-14 16:17:00,
2013-07-14 11:23:00,81.6,69.6,29.63,East,101,0.0,5.0,67,0.00,,,0.00,Wunderground v.1.15,2013-07-14 16:23:00,
2013-07-14 11:28:00,81.5,68.1,29.63,East,86,0.0,10.0,64,0.00,,,0.00,Wunderground v.1.15,2013-07-14 16:28:00,
2013-07-14 11:33:00,81.4,68.5,29.63,East,86,0.0,10.0,65,0.00,,,0.00,Wunderground v.1.15,2013-07-14 16:33:00,
2013-07-14 11:39:00,81.6,67.8,29.63,East,86,1.0,10.0,63,0.00,,,0.00,Wunderground v.1.15,2013-07-14 16:39:00,
2013-07-14 11:44:00,-999.9,-99.9,29.63,East,86,3.0,4.0,62,0.00,,,0.00,Wunderground v.1.15,2013-07-14 16:44:00,
2013-07-14 11:49:00,81.8,68.4,29.63,East,87,0.0,7.0,64,0.00,,,0.00,Wunderground v.1.15,2013-07-14 16:49:00,
2013-07-14 11:54:00,81.8,66.1,29.63,SSE,151,9.0,13.0,59,0.00,,,0.00,Wunderground v.1.15,2013-07-14 16:54:00,
2013-07-14 11:59:00,81.8,66.6,29.63,SSE,147,9.0,13.0,60,0.00,,,0.00,Wunderground v.1.15,2013-07-14 16:59:00,
2013-07-14 12:04:00,82.1,65.9,29.62,SE,145,0.0,9.0,58,0.00,,,0.00,Wunderground v.1.15,2013-07-14 17:04:00,
2013-07-14 12:10:00,82.7,65.9,29.63,SSE,148,4.0,4.0,57,0.00,,,0.00,Wunderground v.1.15,2013-07-14 17:10:00,
2013-07-14 12:15:00,82.7,-99.9,29.63,SSE,148,8.0,8.0,255,0.00,,,0.00,Wunderground v.1.15,2013-07-14 17:15:00,
2013-07-14 12:20:00,-999.9,-99.9,29.63,SSE,148,7.0,7.0,255,0.00,,,0.00,Wunderground v.1.15,2013-07-14 17:20:00,
2013-07-14 12:26:00,82.8,67.5,29.63,SSE,148,7.0,8.0,60,0.00,,,0.00,Wunderground v.1.15,2013-07-14 17:26:00,
2013-07-14 12:31:00,82.9,66.1,29.63,SE,146,2.0,10.0,57,0.00,,,0.00,Wunderground v.1.15,2013-07-14 17:31:00,
2013-07-14 12:36:00,84.3,65.3,29.63,SE,130,0.0,13.0,53,0.00,,,0.00,Wunderground v.1.15,2013-07-14 17:36:00,
2013-07-14 12:41:00,83.5,64.0,29.63,SE,133,0.0,5.0,52,0.00,,,0.00,Wunderground v.1.15,2013-07-14 17:41:00,
2013-07-14 12:46:00,-999.9,-99.9,29.63,SE,128,1.0,11.0,54,0.00,,,0.00,Wunderground v.1.15,2013-07-14 17:46:00,
2013-07-14 12:51:00,84.1,65.1,29.62,SE,128,0.0,2.0,53,0.00,,,0.00,Wunderground v.1.15,2013-07-14 17:51:00,
2013-07-14 12:56:00,84.1,66.2,29.62,SE,128,0.0,9.0,55,0.00,,,0.00,Wunderground v.1.15,2013-07-14 17:56:00,
2013-07-14 13:01:00,84.2,64.7,29.63,SE,136,6.0,7.0,52,0.00,,,0.00,Wunderground v.1.15,2013-07-14 18:01:00,
2013-07-14 13:06:00,84.1,66.2,29.63,SE,136,0.0,9.0,55,0.00,,,0.00,Wunderground v.1.15,2013-07-14 18:06:00,
2013-07-14 13:11:00,84.3,66.4,29.63,SE,136,0.0,6.0,55,0.00,,,0.00,Wunderground v.1.15,2013-07-14 18:11:00,
2013-07-14 13:16:00,84.3,66.4,29.63,SE,136,4.0,6.0,55,0.00,,,0.00,Wunderground v.1.15,2013-07-14 18:16:00,
2013-07-14 13:21:00,84.1,66.7,29.63,SE,136,0.0,6.0,56,0.00,,,0.00,Wunderground v.1.15,2013-07-14 18:21:00,
2013-07-14 13:26:00,83.5,67.2,29.63,SE,136,0.0,6.0,58,0.00,,,0.00,Wunderground v.1.15,2013-07-14 18:26:00,
2013-07-14 13:32:00,82.9,67.6,29.63,SE,136,0.0,4.0,60,0.00,,,0.00,Wunderground v.1.15,2013-07-14 18:32:00,
2013-07-14 13:37:00,82.9,67.1,29.63,SE,136,0.0,7.0,59,0.00,,,0.00,Wunderground v.1.15,2013-07-14 18:37:00,
2013-07-14 13:42:00,82.9,67.6,29.63,SE,136,0.0,7.0,60,0.00,,,0.00,Wunderground v.1.15,2013-07-14 18:42:00,
2013-07-14 13:48:00,83.0,67.7,29.63,SE,136,0.0,7.0,60,0.00,,,0.00,Wunderground v.1.15,2013-07-14 18:48:00,
2013-07-14 13:53:00,83.7,67.8,29.63,SE,136,0.0,5.0,59,0.00,,,0.00,Wunderground v.1.15,2013-07-14 18:53:00,
2013-07-14 13:59:00,84.1,67.2,29.63,SE,136,2.0,5.0,57,0.00,,,0.00,Wunderground v.1.15,2013-07-14 18:59:00,
2013-07-14 14:04:00,83.7,67.4,29.63,SE,136,1.0,8.0,58,0.00,,,0.00,Wunderground v.1.15,2013-07-14 19:04:00,
2013-07-14 14:09:00,83.1,66.8,29.63,SE,135,0.0,8.0,58,0.00,,,0.00,Wunderground v.1.15,2013-07-14 19:09:00,
2013-07-14 14:15:00,83.4,67.1,29.62,SE,135,0.0,6.0,58,0.00,,,0.00,Wunderground v.1.15,2013-07-14 19:15:00,
2013-07-14 14:20:00,83.9,67.5,29.63,SE,134,0.0,1.0,58,0.00,,,0.00,Wunderground v.1.15,2013-07-14 19:20:00,
2013-07-14 14:25:00,84.5,67.6,29.62,SE,134,0.0,8.0,57,0.00,,,0.00,Wunderground v.1.15,2013-07-14 19:25:00,
2013-07-14 14:31:00,85.0,67.5,29.62,SE,134,0.0,1.0,56,0.00,,,0.00,Wunderground v.1.15,2013-07-14 19:31:00,
2013-07-14 14:36:00,85.6,69.1,29.62,SE,134,0.0,1.0,58,0.00,,,0.00,Wunderground v.1.15,2013-07-14 19:36:00,
2013-07-14 14:41:00,85.8,67.8,29.62,SE,130,2.0,2.0,55,0.00,,,0.00,Wunderground v.1.15,2013-07-14 19:41:00,
2013-07-14 14:46:00,85.4,67.9,29.63,SE,130,2.0,9.0,56,0.00,,,0.00,Wunderground v.1.15,2013-07-14 19:46:00,
2013-07-14 14:52:00,85.4,68.4,29.63,SE,128,1.0,4.0,57,0.00,,,0.00,Wunderground v.1.15,2013-07-14 19:52:00,
2013-07-14 14:57:00,85.7,68.7,29.63,SE,128,0.0,7.0,57,0.00,,,0.00,Wunderground v.1.15,2013-07-14 19:57:00,
2013-07-14 15:02:00,85.9,68.4,29.62,SE,128,0.0,1.0,56,0.00,,,0.00,Wunderground v.1.15,2013-07-14 20:02:00,
2013-07-14 15:07:00,86.0,67.4,29.62,SE,128,2.0,5.0,54,0.00,,,0.00,Wunderground v.1.15,2013-07-14 20:07:00,
2013-07-14 15:12:00,86.2,68.1,29.62,SE,128,0.0,1.0,55,0.00,,,0.00,Wunderground v.1.15,2013-07-14 20:12:00,
2013-07-14 15:18:00,86.4,67.2,29.62,SE,128,0.0,7.0,53,0.00,,,0.00,Wunderground v.1.15,2013-07-14 20:18:00,
2013-07-14 15:23:00,86.0,67.4,29.62,SE,128,0.0,1.0,54,0.00,,,0.00,Wunderground v.1.15,2013-07-14 20:23:00,
2013-07-14 15:28:00,85.6,67.0,29.62,SE,128,0.0,7.0,54,0.00,,,0.00,Wunderground v.1.15,2013-07-14 20:28:00,
2013-07-14 15:33:00,85.5,68.0,29.62,SE,128,7.0,7.0,56,0.00,,,0.00,Wunderground v.1.15,2013-07-14 20:33:00,
2013-07-14 15:39:00,85.3,67.8,29.62,SE,128,0.0,7.0,56,0.00,,,0.00,Wunderground v.1.15,2013-07-14 20:39:00,
2013-07-14 15:44:00,85.4,68.4,29.62,SE,128,0.0,7.0,57,0.00,,,0.00,Wunderground v.1.15,2013-07-14 20:44:00,
2013-07-14 15:49:00,85.6,-99.9,29.62,SE,128,0.0,7.0,255,0.00,,,0.00,Wunderground v.1.15,2013-07-14 20:49:00,
2013-07-14 15:54:00,85.8,67.2,29.62,SE,128,0.0,8.0,54,0.00,,,0.00,Wunderground v.1.15,2013-07-14 20:54:00,
2013-07-14 15:59:00,85.8,67.2,29.62,SE,128,0.0,8.0,54,0.00,,,0.00,Wunderground v.1.15,2013-07-14 20:59:00,
2013-07-14 16:04:00,85.5,68.0,29.62,SE,128,0.0,4.0,56,0.00,,,0.00,Wunderground v.1.15,2013-07-14 21:04:00,
2013-07-14 16:09:00,85.3,67.8,29.62,SE,128,4.0,8.0,56,0.00,,,0.00,Wunderground v.1.15,2013-07-14 21:09:00,
2013-07-14 16:15:00,85.5,69.0,29.61,SE,128,0.0,4.0,58,0.00,,,0.00,Wunderground v.1.15,2013-07-14 21:15:00,
2013-07-14 16:20:00,85.7,69.2,29.61,SE,128,1.0,1.0,58,0.00,,,0.00,Wunderground v.1.15,2013-07-14 21:20:00,
2013-07-14 16:25:00,85.5,66.4,29.61,SE,128,0.0,9.0,53,0.00,,,0.00,Wunderground v.1.15,2013-07-14 21:25:00,
2013-07-14 16:31:00,85.1,67.6,29.61,SE,128,0.0,2.0,56,0.00,,,0.00,Wunderground v.1.15,2013-07-14 21:31:00,
2013-07-14 16:36:00,85.0,67.5,29.61,SE,128,0.0,2.0,56,0.00,,,0.00,Wunderground v.1.15,2013-07-14 21:36:00,
2013-07-14 16:41:00,85.3,66.8,29.61,SE,128,0.0,6.0,54,0.00,,,0.00,Wunderground v.1.15,2013-07-14 21:41:00,
2013-07-14 16:47:00,85.9,67.9,29.61,SE,128,0.0,6.0,55,0.00,,,0.00,Wunderground v.1.15,2013-07-14 21:47:00,
2013-07-14 16:52:00,86.3,68.2,29.61,SE,128,0.0,2.0,55,0.00,,,0.00,Wunderground v.1.15,2013-07-14 21:52:00,
2013-07-14 16:57:00,86.4,67.2,29.61,SE,128,6.0,6.0,53,0.00,,,0.00,Wunderground v.1.15,2013-07-14 21:57:00,
2013-07-14 17:03:00,85.9,67.3,29.61,SE,128,0.0,7.0,54,0.00,,,0.00,Wunderground v.1.15,2013-07-14 22:03:00,
2013-07-14 17:08:00,85.8,67.8,29.61,SE,128,0.0,7.0,55,0.00,,,0.00,Wunderground v.1.15,2013-07-14 22:08:00,
2013-07-14 17:13:00,85.9,69.4,29.61,SE,128,0.0,5.0,58,0.00,,,0.00,Wunderground v.1.15,2013-07-14 22:13:00,
2013-07-14 17:18:00,86.4,-99.9,29.61,SE,128,1.0,7.0,255,0.00,,,0.00,Wunderground v.1.15,2013-07-14 22:18:00,
2013-07-14 17:24:00,85.3,67.8,29.61,SE,128,0.0,7.0,56,0.00,,,0.00,Wunderground v.1.15,2013-07-14 22:24:00,
2013-07-14 17:29:00,85.1,68.2,29.61,SE,128,4.0,7.0,57,0.00,,,0.00,Wunderground v.1.15,2013-07-14 22:29:00,
2013-07-14 17:34:00,85.5,68.0,29.61,SE,128,0.0,2.0,56,0.00,,,0.00,Wunderground v.1.15,2013-07-14 22:34:00,
2013-07-14 17:39:00,85.4,-99.9,29.61,SE,128,0.0,2.0,255,0.00,,,0.00,Wunderground v.1.15,2013-07-14 22:39:00,
2013-07-14 17:45:00,85.3,67.3,29.61,SE,128,0.0,4.0,55,0.00,,,0.00,Wunderground v.1.15,2013-07-14 22:45:00,
2013-07-14 17:50:00,85.4,68.4,29.60,SE,128,1.0,1.0,57,0.00,,,0.00,Wunderground v.1.15,2013-07-14 22:50:00,
2013-07-14 17:55:00,85.5,68.0,29.60,SE,128,0.0,5.0,56,0.00,,,0.00,Wunderground v.1.15,2013-07-14 22:55:00,
2013-07-14 18:01:00,85.6,67.6,29.60,SE,128,0.0,1.0,55,0.00,,,0.00,Wunderground v.1.15,2013-07-14 23:01:00,
2013-07-14 18:06:00,85.9,67.9,29.60,SE,128,0.0,5.0,55,0.00,,,0.00,Wunderground v.1.15,2013-07-14 23:06:00,
2013-07-14 18:11:00,86.0,67.4,29.60,SE,128,0.0,1.0,54,0.00,,,0.00,Wunderground v.1.15,2013-07-14 23:11:00,
2013-07-14 18:16:00,85.9,68.4,29.60,SE,128,0.0,8.0,56,0.00,,,0.00,Wunderground v.1.15,2013-07-14 23:16:00,
2013-07-14 18:21:00,86.0,68.5,29.60,SE,128,0.0,1.0,56,0.00,,,0.00,Wunderground v.1.15,2013-07-14 23:21:00,
2013-07-14 18:26:00,85.9,69.4,29.61,SE,128,0.0,1.0,58,0.00,,,0.00,Wunderground v.1.15,2013-07-14 23:26:00,
2013-07-14 18:32:00,85.7,69.2,29.60,SE,128,0.0,6.0,58,0.00,,,0.00,Wunderground v.1.15,2013-07-14 23:32:00,
2013-07-14 18:37:00,85.4,68.4,29.60,SE,128,0.0,8.0,57,0.00,,,0.00,Wunderground v.1.15,2013-07-14 23:37:00,
2013-07-14 18:42:00,85.2,68.8,29.61,SE,128,0.0,7.0,58,0.00,,,0.00,Wunderground v.1.15,2013-07-14 23:42:00,
2013-07-14 18:48:00,85.0,69.6,29.61,SE,128,0.0,7.0,60,0.00,,,0.00,Wunderground v.1.15,2013-07-14 23:48:00,
2013-07-14 18:53:00,84.8,69.4,29.61,SE,128,0.0,4.0,60,0.00,,,0.00,Wunderground v.1.15,2013-07-14 23:53:00,
2013-07-14 18:58:00,84.6,69.2,29.61,SE,128,0.0,5.0,60,0.00,,,0.00,Wunderground v.1.15,2013-07-14 23:58:00,
2013-07-14 19:03:00,84.4,68.5,29.61,SE,128,0.0,4.0,59,0.00,,,0.00,Wunderground v.1.15,2013-07-15 00:03:00,
2013-07-14 19:08:00,84.1,68.2,29.61,SE,128,0.0,7.0,59,0.00,,,0.00,Wunderground v.1.15,2013-07-15 00:08:00,
2013-07-14 19:13:00,83.9,69.0,29.61,SE,128,0.0,1.0,61,0.00,,,0.00,Wunderground v.1.15,2013-07-15 00:13:00,
2013-07-14 19:19:00,83.9,69.5,29.61,SE,128,0.0,1.0,62,0.00,,,0.00,Wunderground v.1.15,2013-07-15 00:19:00,
2013-07-14 19:24:00,83.7,68.8,29.61,SE,128,0.0,4.0,61,0.00,,,0.00,Wunderground v.1.15,2013-07-15 00:24:00,
2013-07-14 19:29:00,83.5,68.6,29.62,SE,128,0.0,5.0,61,0.00,,,0.00,Wunderground v.1.15,2013-07-15 00:29:00,
2013-07-14 19:34:00,83.3,68.4,29.62,SE,128,0.0,1.0,61,0.00,,,0.00,Wunderground v.1.15,2013-07-15 00:34:00,
2013-07-14 19:39:00,83.2,68.3,29.62,SE,128,0.0,1.0,61,0.00,,,0.00,Wunderground v.1.15,2013-07-15 00:39:00,
2013-07-14 19:44:00,82.9,68.5,29.62,SE,128,0.0,0.0,62,0.00,,,0.00,Wunderground v.1.15,2013-07-15 00:44:00,
2013-07-14 19:50:00,82.6,68.7,29.62,SE,128,0.0,0.0,63,0.00,,,0.00,Wunderground v.1.15,2013-07-15 00:50:00,
2013-07-14 19:55:00,82.4,68.5,29.62,SE,128,1.0,1.0,63,0.00,,,0.00,Wunderground v.1.15,2013-07-15 00:55:00,
2013-07-14 20:01:00,82.0,68.2,29.62,SE,128,0.0,0.0,63,0.00,,,0.00,Wunderground v.1.15,2013-07-15 01:01:00,
2013-07-14 20:06:00,81.5,68.1,29.62,SE,128,0.0,0.0,64,0.00,,,0.00,Wunderground v.1.15,2013-07-15 01:06:00,
2013-07-14 20:11:00,81.2,67.9,29.62,SE,128,0.0,0.0,64,0.00,,,0.00,Wunderground v.1.15,2013-07-15 01:11:00,
2013-07-14 20:16:00,-999.9,-99.9,29.62,SE,128,0.0,0.0,65,0.00,,,0.00,Wunderground v.1.15,2013-07-15 01:16:00,
2013-07-14 20:22:00,80.4,68.0,29.62,SE,128,0.0,0.0,66,0.00,,,0.00,Wunderground v.1.15,2013-07-15 01:22:00,
2013-07-14 20:27:00,79.9,68.0,29.62,SE,128,0.0,2.0,67,0.00,,,0.00,Wunderground v.1.15,2013-07-15 01:27:00,
2013-07-14 20:33:00,79.7,67.8,29.62,SE,128,0.0,1.0,67,0.00,,,0.00,Wunderground v.1.15,2013-07-15 01:33:00,
2013-07-14 20:38:00,79.2,68.1,29.62,SE,128,0.0,1.0,69,0.00,,,0.00,Wunderground v.1.15,2013-07-15 01:38:00,
2013-07-14 20:43:00,78.8,67.8,29.62,SE,128,0.0,0.0,69,0.00,,,0.00,Wunderground v.1.15,2013-07-15 01:43:00,
2013-07-14 20:48:00,78.6,68.0,29.62,SE,128,0.0,4.0,70,0.00,,,0.00,Wunderground v.1.15,2013-07-15 01:48:00,
2013-07-14 20:53:00,78.3,68.1,29.63,SE,128,0.0,0.0,71,0.00,,,0.00,Wunderground v.1.15,2013-07-15 01:53:00,
2013-07-14 20:59:00,78.0,67.8,29.63,SE,128,0.0,0.0,71,0.00,,,0.00,Wunderground v.1.15,2013-07-15 01:59:00,
2013-07-14 21:04:00,77.9,68.1,29.63,SE,128,0.0,0.0,72,0.00,,,0.00,Wunderground v.1.15,2013-07-15 02:04:00,
2013-07-14 21:09:00,77.9,68.1,29.63,SE,128,0.0,0.0,72,0.00,,,0.00,Wunderground v.1.15,2013-07-15 02:09:00,
2013-07-14 21:14:00,77.5,68.2,29.63,SE,128,0.0,0.0,73,0.00,,,0.00,Wunderground v.1.15,2013-07-15 02:14:00,
2013-07-14 21:19:00,78.2,68.4,29.63,SE,128,0.0,0.0,72,0.00,,,0.00,Wunderground v.1.15,2013-07-15 02:19:00,
2013-07-14 21:24:00,77.1,67.8,29.63,SE,128,0.0,0.0,73,0.00,,,0.00,Wunderground v.1.15,2013-07-15 02:24:00,
2013-07-14 21:29:00,76.9,-99.9,29.63,SE,128,0.0,0.0,255,0.00,,,0.00,Wunderground v.1.15,2013-07-15 02:29:00,
2013-07-14 21:34:00,76.6,68.1,29.63,SE,128,0.0,5.0,75,0.00,,,0.00,Wunderground v.1.15,2013-07-15 02:34:00,
2013-07-14 21:40:00,76.4,67.9,29.64,SE,128,0.0,0.0,75,0.00,,,0.00,Wunderground v.1.15,2013-07-15 02:40:00,
2013-07-14 21:45:00,76.2,68.1,29.64,SE,128,0.0,4.0,76,0.00,,,0.00,Wunderground v.1.15,2013-07-15 02:45:00,
2013-07-14 21:50:00,76.3,68.2,29.64,SE,128,0.0,0.0,76,0.00,,,0.00,Wunderground v.1.15,2013-07-15 02:50:00,
2013-07-14 21:55:00,76.2,68.1,29.64,SE,128,0.0,0.0,76,0.00,,,0.00,Wunderground v.1.15,2013-07-15 02:55:00,
2013-07-14 22:01:00,76.3,68.2,29.64,SE,128,0.0,0.0,76,0.00,,,0.00,Wunderground v.1.15,2013-07-15 03:01:00,
2013-07-14 22:06:00,76.4,68.3,29.64,SE,128,0.0,0.0,76,0.00,,,0.00,Wunderground v.1.15,2013-07-15 03:06:00,
2013-07-14 22:11:00,76.2,68.1,29.64,SE,128,0.0,0.0,76,0.00,,,0.00,Wunderground v.1.15,2013-07-15 03:11:00,
2013-07-14 22:16:00,76.2,68.1,29.64,SE,128,0.0,4.0,76,0.00,,,0.00,Wunderground v.1.15,2013-07-15 03:16:00,
2013-07-14 22:21:00,76.1,68.4,29.64,SE,128,0.0,2.0,77,0.00,,,0.00,Wunderground v.1.15,2013-07-15 03:21:00,
2013-07-14 22:26:00,76.0,68.3,29.64,SE,128,0.0,4.0,77,0.00,,,0.00,Wunderground v.1.15,2013-07-15 03:26:00,
2013-07-14 22:31:00,76.0,68.3,29.64,SE,128,5.0,5.0,77,0.00,,,0.00,Wunderground v.1.15,2013-07-15 03:31:00,
2013-07-14 22:36:00,76.1,68.4,29.65,SE,128,0.0,5.0,77,0.00,,,0.00,Wunderground v.1.15,2013-07-15 03:36:00,
2013-07-14 22:41:00,76.1,68.4,29.65,SE,128,0.0,1.0,77,0.00,,,0.00,Wunderground v.1.15,2013-07-15 03:41:00,
2013-07-14 22:46:00,76.2,68.5,29.65,SE,128,0.0,6.0,77,0.00,,,0.00,Wunderground v.1.15,2013-07-15 03:46:00,
2013-07-14 22:51:00,76.2,68.5,29.65,SE,128,0.0,8.0,77,0.00,,,0.00,Wunderground v.1.15,2013-07-15 03:51:00,
2013-07-14 22:57:00,76.8,67.9,29.65,SE,128,0.0,8.0,74,0.00,,,0.00,Wunderground v.1.15,2013-07-15 03:57:00,
2013-07-14 23:01:00,76.5,68.4,29.65,SE,128,0.0,1.0,76,0.00,,,0.00,Wunderground v.1.15,2013-07-15 04:01:00,
2013-07-14 23:06:00,76.4,68.3,29.65,SE,128,0.0,2.0,76,0.00,,,0.00,Wunderground v.1.15,2013-07-15 04:06:00,
2013-07-14 23:11:00,76.4,68.7,29.65,SE,128,0.0,1.0,77,0.00,,,0.00,Wunderground v.1.15,2013-07-15 04:11:00,
2013-07-14 23:17:00,76.4,68.7,29.65,SE,128,0.0,5.0,77,0.00,,,0.00,Wunderground v.1.15,2013-07-15 04:17:00,
2013-07-14 23:22:00,76.2,68.5,29.65,SE,128,0.0,5.0,77,0.00,,,0.00,Wunderground v.1.15,2013-07-15 04:22:00,
2013-07-14 23:27:00,76.2,68.8,29.65,SE,128,0.0,5.0,78,0.00,,,0.00,Wunderground v.1.15,2013-07-15 04:27:00,
2013-07-14 23:33:00,76.0,68.6,29.65,SE,128,0.0,1.0,78,0.00,,,0.00,Wunderground v.1.15,2013-07-15 04:33:00,
2013-07-14 23:38:00,76.2,68.8,29.65,SE,128,6.0,6.0,78,0.00,,,0.00,Wunderground v.1.15,2013-07-15 04:38:00,
2013-07-14 23:43:00,75.9,-99.9,29.65,SE,128,0.0,2.0,255,0.00,,,0.00,Wunderground v.1.15,2013-07-15 04:43:00,
2013-07-14 23:48:00,75.9,68.9,29.65,SE,128,0.0,4.0,79,0.00,,,0.00,Wunderground v.1.15,2013-07-15 04:48:00,
2013-07-14 23:53:00,75.9,68.9,29.65,SE,128,1.0,8.0,79,0.00,,,0.00,Wunderground v.1.15,2013-07-15 04:53:00,
2013-07-14 23:59:00,75.8,68.8,29.65,SE,128,2.0,8.0,79,0.00,,,0.00,Wunderground v.1.15,2013-07-15 04:59:00,